TimeCST,TemperatureF,Dew PointF,Humidity,Sea Level PressureIn,VisibilityMPH,Wind Direction,Wind SpeedMPH,Gust SpeedMPH,PrecipitationIn,Events,Conditions,WindDirDegrees,DateUTC
12:53 AM,30.0,17.1,59,30.02,10.0,NNW,4.6,-,N/A,,Clear,340,2012-12-07 06:53:00
1:53 AM,28.0,16.0,61,29.99,10.0,Calm,Calm,-,N/A,,Clear,0,2012-12-07 07:53:00
2:53 AM,27.0,16.0,63,30.01,10.0,Calm,Calm,-,N/A,,Overcast,0,2012-12-07 08:53:00
3:53 AM,25.0,15.1,66,29.99,10.0,Calm,Calm,-,N/A,,Mostly Cloudy,0,2012-12-07 09:53:00
4:53 AM,27.0,17.1,66,29.96,10.0,NNW,4.6,-,N/A,,Overcast,340,2012-12-07 10:53:00
5:53 AM,28.9,18.0,64,29.96,10.0,Calm,Calm,-,N/A,,Overcast,0,2012-12-07 11:53:00
6:53 AM,30.0,18.0,61,29.97,10.0,Calm,Calm,-,N/A,,Overcast,0,2012-12-07 12:53:00
7:53 AM,30.0,19.0,64,29.97,10.0,Calm,Calm,-,N/A,,Overcast,0,2012-12-07 13:53:00
8:53 AM,32.0,19.9,61,29.97,10.0,Calm,Calm,-,N/A,,Overcast,0,2012-12-07 14:53:00
9:53 AM,35.1,19.9,54,29.98,10.0,Calm,Calm,-,N/A,,Overcast,0,2012-12-07 15:53:00
10:53 AM,39.0,21.0,49,29.96,10.0,South,4.6,-,N/A,,Mostly Cloudy,180,2012-12-07 16:53:00
11:53 AM,43.0,23.0,45,29.94,10.0,Calm,Calm,-,N/A,,Overcast,0,2012-12-07 17:53:00
12:53 PM,48.0,23.0,37,29.91,10.0,Variable,5.8,-,N/A,,Overcast,0,2012-12-07 18:53:00
1:53 PM,52.0,23.0,32,29.89,10.0,WNW,10.4,-,N/A,,Mostly Cloudy,300,2012-12-07 19:53:00
2:53 PM,53.1,23.0,31,29.87,10.0,West,6.9,-,N/A,,Mostly Cloudy,270,2012-12-07 20:53:00
3:53 PM,54.0,21.0,28,29.88,10.0,NW,6.9,-,N/A,,Clear,320,2012-12-07 21:53:00
4:53 PM,48.9,21.0,33,29.88,10.0,North,3.5,-,N/A,,Clear,10,2012-12-07 22:53:00
5:53 PM,37.0,19.0,48,29.93,7.0,North,6.9,-,N/A,,Clear,350,2012-12-07 23:53:00
7:53 PM,33.1,-9999,N/A,30.01,10.0,NNE,6.9,-,N/A,,Clear,30,2012-12-08 01:53:00
8:53 PM,28.0,-9999,N/A,30.04,10.0,North,8.1,-,N/A,,Clear,360,2012-12-08 02:53:00
9:53 PM,30.9,-9999,N/A,30.04,10.0,Calm,Calm,-,N/A,,Partly Cloudy,0,2012-12-08 03:53:00
10:53 PM,34.0,-9999,N/A,30.03,10.0,Calm,Calm,-,N/A,,Mostly Cloudy,0,2012-12-08 04:53:00
11:53 PM,36.0,-9999,N/A,30.04,10.0,North,5.8,-,N/A,,Overcast,350,2012-12-08 05:53:00